STARLINK-5793 (56038 NORAD) Tracking and Keplerian Element Data

This shows tracking and keplerian element data for the satellite.

Feedback or suggestion? Click here.




ElementValue
Catalog56038
NameSTARLINK-5793
Epoch Orbit719
Epoch Day127.16667824
Epoch Year2023
RAAN292.1809
Inclination42.9994
Eccentricity0.000141
Argument of Perigee275.8027
Mean Anonmoly173.6896
Mean Motion15.54712359
Decay Rate-0.00925868
L11 56038U 23042BE 23127.16667824 -.00925868 00000+0 -14995-1 0 9996
L22 56038 42.9994 292.1809 0001410 275.8027 173.6896 15.54712359 7198



Live tracking and technical data element details for STARLINK-5793 (NORAD 56038). STARLINK-5793 can be tracked NOW for your location showing map with azimuth and elevation plus other details from your city location.







IsCatalogInMostPopularTable: catalog: 56038, numindb: 2
Update: records affected: 1



GetName: 56038 STARLINK-5793

Hit Count: updated at: Sun, 04 Jun 2023 23:45:33 GMT